User: anonymous   Login
Location: Pian di Sc�
(43.6333°N, 11.5500°E)
Time: 14:04:15
(UTC+00:00)
Language:

Resurs 1-4 Rocket - Orbit

View from above orbital plane
View from above orbital plane
View from above satellite
View from above satellite

Ground track
Ground track

The orbit data is extracted from the following two-line orbital elements,

1 25400U 98043G   20294.58681044 -.00000004 +00000-0 +16599-4 0  9997
2 25400 098.6151 228.2440 0009488 336.6297 023.4450 14.25462487159073
Epoch (UTC): 20 October 2020 14:05:00
Eccentricity: 0.0009488
inclination: 98.6151°
perigee height: 800 km
apogee height: 814 km
right ascension of ascending node: 228.2440°
argument of perigee: 336.6297°
revolutions per day: 14.25462487
mean anomaly at epoch: 23.4450°
orbit number at epoch: 15907

The dashed part of the orbit path shows where the satellite is in the earth's shadow,  

DLR